Regional Weather Roundup
Issued by NWS State College, PA

Home | Current Version | Previous Version | Text Only | Print | Product List | Glossary On
Versions: 1 2 3 4 5 6 7 8 9 10 11 12 13 14 15 16 17 18 19 20 21 22 23 24 25 26 27 28 29 30 31 32 33 34 35 36 37 38 39 40 41 42 43 44 45 46 47 48 49 50
000
ASUS41 KCTP 281410
RWRCTP

REGIONAL WEATHER ROUNDUP
NATIONAL WEATHER SERVICE STATE COLLEGE PA
1000 AM EDT THU JUL 28 2016

Note: "fair" indicates few or no clouds below 12,000 feet with no
significant weather and/or obstructions to visibility.

* = STATION THAT DOES NOT REPORT PRECIPITATION /E.G. RAIN...SNOW...ETC/
    THUNDER OR FOG.

PAZ002>004-007>009-013>016-020>023-029>032-281500-
WESTERN PENNSYLVANIA

CITY           SKY/WX    TMP DP  RH WIND       PRES   REMARKS
ERIE           CLOUDY    80  64  58 SE5       29.93F
MEADVILLE      CLOUDY    74  61  63 S3        29.96F
FRANKLIN*      CLOUDY    72  63  73 E3        29.97F
NEW CASTLE     FAIR      75  68  78 CALM      29.94F
BEAVER COUNTY  MOSUNNY   75  68  78 CALM      29.94F
BUTLER*        CLOUDY    75  68  78 SE5       29.97F
PITTSBURGH INT CLOUDY    75  69  81 S3        29.94F
PITTSBURGH     CLOUDY    76  69  79 S3        29.94F HAZE
INDIANA*       MOSUNNY   75  66  73 CALM      30.00S
LATROBE        PTSUNNY   75  72  88 CALM      29.97S
WASHINGTON CO* CLOUDY    73  70  88 SW7       29.96S
$$

PAZ004>006-010>012-017>019-024>028-033>037-041-042-045-046-049>053-281500-
CENTRAL PENNSYLVANIA

CITY           SKY/WX    TMP DP  RH WIND       PRES   REMARKS
BRADFORD       CLOUDY    72  62  71 CALM      30.01F
DUBOIS         PTSUNNY   75  62  64 VRB3      29.98F
CLEARFIELD     PTSUNNY   73  62  68 NE5       29.99F
JOHNSTOWN      CLOUDY    74  68  81 VRB5      30.01S
ALTOONA        CLOUDY    76  61  59 CALM      29.98F
STATE COLLEGE  MOSUNNY   73  64  73 CALM      29.97F
WILLIAMSPORT   CLOUDY    75  61  61 W6        29.94S
SELINSGROVE    PTSUNNY   76  69  79 CALM      29.94F
FT INDIANTOWN  MOSUNNY   82  65  56 VRB2      29.93S
CAPITAL CITY   LGT RAIN  82  67  60 CALM      29.92F
HARRISBURG     CLOUDY    81  71  71 CALM      29.91F
YORK           CLOUDY    82  72  71 CALM      29.92F
$$

PAZ038>040-043-044-047-048-054-055-060>062-067>071-281500-
EASTERN PENNSYLVANIA

CITY           SKY/WX    TMP DP  RH WIND       PRES   REMARKS
SCRANTON       MOSUNNY   83  63  50 CALM      29.95F
MOUNT POCONO   CLOUDY    80  61  52 W5        30.01S
ALLENTOWN      MOSUNNY   83  68  60 N5        29.93F
QUAKERTOWN*    MOSUNNY   86  64  48 CALM      29.94F
READING        MOSUNNY   83  65  54 VRB3      29.91F
LANCASTER      CLOUDY    81  68  64 E3        29.92F
COATESVILLE    MOSUNNY   82  70  65 CALM      29.95F
POTTSTOWN      MOSUNNY   83  68  60 CALM      29.94F
BLUE BELL      PTSUNNY   82  70  65 CALM      29.92F
DOYLESTOWN     MOSUNNY   83  66  56 CALM      29.92F
WILLOW GROVE   NOT AVBL
NORTH PHILA    PTSUNNY   86  74  67 SE5       29.93F
PHILADELPHIA   PTSUNNY   87  73  62 SE5       29.92F
$$



USA.gov is the U.S. government's official web portal to all federal, state and local government web resources and services.